Tracking 21076 objects as of 7-Aug-2020
HD Live streaming from Space Station
objects crossing your sky now

METEOR 2-5 DEB

Track METEOR 2-5 DEB now!
10-day predictions


NORAD ID: 29198
Int'l Code: 1979-095P
Perigee: 765.4 km
Apogee: 785.0 km
Inclination: 81.2 °
Period: 100.2 minutes
Semi major axis: 7146 km
RCS: 0.0095 m2 (small)
Launch date: October 31, 1979
Source: Commonwealth of Independent States (former USSR) (CIS)
Launch site: PLESETSK MISSILE AND SPACE COMPLEX (PKMTR)

Note: This is SATELLITE DEBRIS
aabbcc
Your satellite tracking list
Your tracking list is empty




NASA's NSSDC Master Catalog

Two Line Element Set (TLE):
1 29198U 79095P   20218.60919796 +.00000390 +00000-0 +12680-3 0  9991
2 29198 081.2051 311.4889 0013712 216.2306 143.7952 14.37118734360094
Source of the keplerian elements: AFSPC